Starlink 33692

operational
NORAD ID: 63408 Int'l Des: 2025-065 Owner: SPXS Country: US Constellation: starlink
LEOCIRCULAR

Über Starlink 33692

Beschreibung wird geladen...

Live-Position

3D-Globus wird geladen...

Nächste Überflüge

Höhenverlauf

Altitude vs Time

uPlot chart will show altitude changes over time

Zweizeiliger Elementsatz

1 63408U 25065K 25352.66279085 .00023176 00000-0 84879-3 0 9997
2 63408 43.0003 208.5011 0001118 253.9942 106.0787 15.27591603 40401
Epoch: 18. Dez. 2025 • Age: 27 hours

Aktueller Status

Höhe 484.0 km
Geschwindigkeit 7.63 km/s
Subsatellitenpunkt 29.86°N, 130.5°W
Startdatum 31. März 2025
Alter 0.7 years
Typ internet

Technische Details

Klassifizierung Payload
Masse 575.00 kg
Trockenmasse 530.00 kg
Gesamtmasse 575.00 kg
Länge 0.30 m
Durchmesser 4.10 m
Spannweite 29.00 m
Form Box + pan
Hersteller SPXS
Bus-Typ Starlink V2MO
Phasenstatus In Orbit
Besitzer/Staat SPXS/US

Große Konstellationen

Loading constellations...